TimeEDT,TemperatureF,Dew PointF,Humidity,Sea Level PressureIn,VisibilityMPH,Wind Direction,Wind SpeedMPH,Gust SpeedMPH,PrecipitationIn,Events,Conditions,WindDirDegrees,DateUTC
12:15 AM,75.2,69.8,83,29.76,10.0,North,-9999.0,-,N/A,,Partly Cloudy,0,2013-06-26 04:15:00
12:35 AM,75.2,69.8,83,29.76,10.0,North,-9999.0,-,N/A,,Clear,0,2013-06-26 04:35:00
12:55 AM,75.2,69.8,83,29.76,10.0,North,-9999.0,-,N/A,,Clear,0,2013-06-26 04:55:00
1:15 AM,75.2,69.8,83,29.76,10.0,North,-9999.0,-,N/A,,Clear,0,2013-06-26 05:15:00
1:35 AM,75.2,69.8,83,29.76,10.0,North,-9999.0,-,N/A,,Clear,0,2013-06-26 05:35:00
1:55 AM,73.4,69.8,88,29.75,10.0,North,-9999.0,-,N/A,,Clear,0,2013-06-26 05:55:00
2:15 AM,73.4,69.8,88,29.75,10.0,North,-9999.0,-,N/A,,Clear,0,2013-06-26 06:15:00
2:35 AM,73.4,69.8,88,29.75,10.0,North,-9999.0,-,N/A,,Clear,0,2013-06-26 06:35:00
2:55 AM,73.4,69.8,88,29.74,10.0,North,-9999.0,-,N/A,,Clear,0,2013-06-26 06:55:00
3:15 AM,73.4,69.8,88,29.74,10.0,North,-9999.0,-,N/A,,Clear,0,2013-06-26 07:15:00
3:35 AM,73.4,69.8,88,29.74,10.0,North,-9999.0,-,N/A,,Clear,0,2013-06-26 07:35:00
3:55 AM,71.6,68.0,88,29.74,10.0,North,-9999.0,-,N/A,,Clear,0,2013-06-26 07:55:00
4:15 AM,71.6,68.0,88,29.75,10.0,North,-9999.0,-,N/A,,Clear,0,2013-06-26 08:15:00
4:35 AM,71.6,68.0,88,29.76,10.0,North,-9999.0,-,N/A,,Clear,0,2013-06-26 08:35:00
4:55 AM,71.6,68.0,88,29.76,10.0,North,-9999.0,-,N/A,,Clear,0,2013-06-26 08:55:00
5:15 AM,71.6,68.0,88,29.76,10.0,North,-9999.0,-,N/A,,Clear,0,2013-06-26 09:15:00
5:35 AM,71.6,68.0,88,29.76,10.0,North,-9999.0,-,N/A,,Clear,0,2013-06-26 09:35:00
5:55 AM,71.6,69.8,94,29.77,10.0,North,-9999.0,-,N/A,,Clear,0,2013-06-26 09:55:00
6:15 AM,71.6,69.8,94,29.77,10.0,North,-9999.0,-,N/A,,Clear,0,2013-06-26 10:15:00
6:35 AM,73.4,69.8,88,29.77,10.0,North,-9999.0,-,N/A,,Clear,0,2013-06-26 10:35:00
6:55 AM,73.4,69.8,88,29.76,10.0,North,-9999.0,-,N/A,,Clear,0,2013-06-26 10:55:00
7:15 AM,75.2,69.8,83,29.77,10.0,North,-9999.0,-,N/A,,Clear,0,2013-06-26 11:15:00
7:35 AM,75.2,69.8,83,29.77,10.0,North,-9999.0,-,N/A,,Clear,0,2013-06-26 11:35:00
7:55 AM,77.0,69.8,78,29.77,9.0,North,-9999.0,-,N/A,,Clear,0,2013-06-26 11:55:00
8:15 AM,78.8,69.8,74,29.78,10.0,North,-9999.0,-,N/A,,Clear,0,2013-06-26 12:15:00
8:35 AM,80.6,69.8,70,29.78,10.0,North,-9999.0,-,N/A,,Partly Cloudy,0,2013-06-26 12:35:00
8:55 AM,80.6,69.8,70,29.78,10.0,North,-9999.0,-,N/A,,Partly Cloudy,0,2013-06-26 12:55:00
9:15 AM,80.6,69.8,70,29.78,10.0,North,-9999.0,-,N/A,,Clear,0,2013-06-26 13:15:00
9:35 AM,80.6,69.8,70,29.77,10.0,North,-9999.0,-,N/A,,Clear,0,2013-06-26 13:35:00
9:55 AM,80.6,69.8,70,29.78,10.0,North,-9999.0,-,N/A,,Clear,0,2013-06-26 13:55:00
10:15 AM,82.4,69.8,66,29.78,10.0,North,-9999.0,-,N/A,,Clear,0,2013-06-26 14:15:00
10:55 AM,82.4,69.8,66,29.78,10.0,North,-9999.0,-,N/A,,Clear,0,2013-06-26 14:55:00
11:15 AM,82.4,69.8,66,29.78,10.0,North,-9999.0,-,N/A,,Scattered Clouds,0,2013-06-26 15:15:00
11:35 AM,82.4,69.8,66,29.78,10.0,North,-9999.0,-,N/A,,Scattered Clouds,0,2013-06-26 15:35:00
11:55 AM,80.6,68.0,65,29.78,10.0,North,-9999.0,-,N/A,,Mostly Cloudy,0,2013-06-26 15:55:00
12:15 PM,82.4,68.0,62,29.78,10.0,North,-9999.0,-,N/A,,Mostly Cloudy,0,2013-06-26 16:15:00
12:35 PM,80.6,68.0,65,29.77,10.0,North,-9999.0,-,N/A,,Mostly Cloudy,0,2013-06-26 16:35:00
12:55 PM,82.4,68.0,62,29.77,10.0,North,-9999.0,-,N/A,,Mostly Cloudy,0,2013-06-26 16:55:00
1:15 PM,78.8,69.8,74,29.77,10.0,North,-9999.0,-,N/A,,Mostly Cloudy,0,2013-06-26 17:15:00
1:35 PM,77.0,69.8,78,29.78,10.0,North,-9999.0,-,N/A,,Mostly Cloudy,0,2013-06-26 17:35:00
1:55 PM,77.0,68.0,74,29.78,9.0,North,-9999.0,-,N/A,,Mostly Cloudy,0,2013-06-26 17:55:00
2:15 PM,75.2,69.8,83,29.78,10.0,North,-9999.0,-,N/A,,Scattered Clouds,0,2013-06-26 18:15:00
2:35 PM,75.2,69.8,83,29.78,10.0,North,-9999.0,-,N/A,,Scattered Clouds,0,2013-06-26 18:35:00
2:55 PM,75.2,69.8,83,29.78,10.0,North,-9999.0,-,N/A,,Partly Cloudy,0,2013-06-26 18:55:00
3:15 PM,77.0,68.0,74,29.78,10.0,North,-9999.0,-,N/A,,Partly Cloudy,0,2013-06-26 19:15:00
3:35 PM,77.0,68.0,74,29.78,10.0,North,-9999.0,-,N/A,,Clear,0,2013-06-26 19:35:00
3:55 PM,75.2,68.0,78,29.78,10.0,North,-9999.0,-,N/A,,Partly Cloudy,0,2013-06-26 19:55:00
4:15 PM,73.4,69.8,88,29.78,1.8,North,-9999.0,-,0.12,,Light Drizzle,0,2013-06-26 20:15:00
4:35 PM,71.6,69.8,94,29.79,10.0,North,-9999.0,-,0.12,,Drizzle,0,2013-06-26 20:35:00
4:55 PM,71.6,69.8,94,29.77,5.0,North,-9999.0,-,0.14,Rain,Light Rain,0,2013-06-26 20:55:00
5:15 PM,71.6,69.8,94,29.78,10.0,North,-9999.0,-,N/A,,Partly Cloudy,0,2013-06-26 21:15:00
5:35 PM,71.6,69.8,94,29.79,10.0,North,-9999.0,-,N/A,,Scattered Clouds,0,2013-06-26 21:35:00
5:55 PM,71.6,69.8,94,29.79,10.0,North,-9999.0,-,N/A,,Light Drizzle,0,2013-06-26 21:55:00
6:15 PM,71.6,69.8,94,29.80,10.0,North,-9999.0,-,N/A,Thunderstorm,Unknown,0,2013-06-26 22:15:00
6:35 PM,69.8,69.8,100,29.80,0.8,North,-9999.0,-,0.38,Thunderstorm,Unknown,0,2013-06-26 22:35:00
6:55 PM,71.6,69.8,94,29.81,6.0,North,-9999.0,-,0.38,,Light Drizzle,0,2013-06-26 22:55:00
7:15 PM,71.6,69.8,94,29.81,5.0,North,-9999.0,-,N/A,,Scattered Clouds,0,2013-06-26 23:15:00
7:35 PM,69.8,69.8,100,29.83,4.0,North,-9999.0,-,N/A,,Scattered Clouds,0,2013-06-26 23:35:00
7:55 PM,69.8,69.8,100,29.83,6.0,North,-9999.0,-,N/A,,Mostly Cloudy,0,2013-06-26 23:55:00
8:15 PM,69.8,69.8,100,29.83,10.0,North,-9999.0,-,N/A,,Scattered Clouds,0,2013-06-27 00:15:00
8:35 PM,69.8,68.0,94,29.83,10.0,North,-9999.0,-,N/A,,Clear,0,2013-06-27 00:35:00
8:55 PM,69.8,68.0,94,29.83,1.8,North,-9999.0,-,N/A,Rain,Light Rain,0,2013-06-27 00:55:00
9:15 PM,68.0,68.0,100,29.84,2.0,North,-9999.0,-,N/A,,Clear,0,2013-06-27 01:15:00
9:35 PM,69.8,68.0,94,29.85,6.0,North,-9999.0,-,N/A,,Clear,0,2013-06-27 01:35:00
9:55 PM,69.8,68.0,94,29.86,6.0,North,-9999.0,-,N/A,,Clear,0,2013-06-27 01:55:00
10:15 PM,69.8,68.0,94,29.86,5.0,North,-9999.0,-,N/A,,Clear,0,2013-06-27 02:15:00
10:35 PM,68.0,66.2,94,29.86,2.0,North,-9999.0,-,N/A,,Scattered Clouds,0,2013-06-27 02:35:00
10:55 PM,68.0,66.2,94,29.86,2.5,North,-9999.0,-,N/A,,Partly Cloudy,0,2013-06-27 02:55:00
11:15 PM,68.0,66.2,94,29.86,5.0,North,-9999.0,-,N/A,,Mostly Cloudy,0,2013-06-27 03:15:00
11:35 PM,68.0,66.2,94,29.87,9.0,North,-9999.0,-,N/A,,Overcast,0,2013-06-27 03:35:00
11:55 PM,66.2,66.2,100,29.87,2.0,North,-9999.0,-,N/A,,Overcast,0,2013-06-27 03:55:00